AirNav   Everest Fuels
 
 1109 users online  

H92 Hominy Municipal Airport
Hominy, Oklahoma, USA

GOING TO HOMINY?


FAA INFORMATION EFFECTIVE 31 DECEMBER 2020

Location

FAA Identifier: H92
Lat/Long: 36-26-33.9000N 096-23-14.0000W
36-26.565000N 096-23.233333W
36.4427500,-96.3872222
(estimated)
Elevation: 825 ft. / 251 m (estimated)
Variation: 06E (1985)
From city: 2 miles N of HOMINY, OK
Time zone: UTC -6 (UTC -5 during Daylight Saving Time)
Zip code: 74035

Airport Operations

Airport use: Open to the public
Activation date: 04/1947
Control tower: no
ARTCC: KANSAS CITY CENTER
FSS: MC ALESTER FLIGHT SERVICE STATION
NOTAMs facility: MLC (NOTAM-D service available)
Attendance: UNATNDD
Wind indicator: lighted
Segmented circle: yes
Lights: ACTVT MIRL RY 17/35 - CTAF.
Beacon: white-green (lighted land airport)
Operates sunset to sunrise.

Airport Communications

CTAF: 122.9
WX AWOS-3 at OWP (20 nm SE): 118.325 (918-246-2635)

Nearby radio navigation aids

VOR radial/distance  VOR name  Freq  Var
BVOr209/29.4BARTLESVILLE VOR/DME117.9008E
TULr289/32.5TULSA VORTAC114.4008E
SWOr062/36.0STILLWATER VOR/DME108.4007E

 
NDB name  Hdg/Dist  Freq  Var  ID
WILLIAM POGUE319/19.736206EOWP --- .-- .--.

Airport Services

Fuel available: 100LL
FUEL AVBL 24 HRS SELF SERVICE WITH CREDIT CARD.
Parking: tiedowns
Airframe service: NONE
Powerplant service: NONE
Bottled oxygen: NONE
Bulk oxygen: NONE

Runway Information

Runway 17/35

Dimensions: 3210 x 60 ft. / 978 x 18 m
Surface: asphalt, in good condition
Weight bearing capacity: 
Single wheel: 8.0
Runway edge lights: medium intensity
RUNWAY 17  RUNWAY 35
Latitude: 36-26.829500N36-26.300500N
Longitude: 096-23.233500W096-23.233500W
Elevation: 819.0 ft.820.0 ft.
Traffic pattern: leftleft
Runway heading: 174 magnetic, 180 true354 magnetic, 000 true
Displaced threshold: 180 ft.180 ft.
Markings: basic, in good conditionbasic, in good condition
Visual slope indicator: 4-light PAPI on left4-light PAPI on left
Obstructions: 16 ft. trees, 430 ft. from runway, 14:1 slope to clear14 ft. trees, 240 ft. from runway, 120 ft. right of centerline, 2:1 slope to clear

Airport Ownership and Management from official FAA records

Ownership: Publicly-owned
Owner: CITY OF HOMINY
219 W. 1ST ST., PO BOX 219
HOMINY, OK 74035
Phone 918-885-2164
Manager: DANI MULLINS
219 W. 1ST ST., PO BOX 219
HOMINY, OK 74035
Phone 918-885-2164
CITY CLERK.

Airport Operational Statistics

Aircraft based on the field: 4
Single engine airplanes: 4
    
Aircraft operations: avg 33/month *
100% transient general aviation
* for 12-month period ending 25 June 2019

Additional Remarks

ULTRALIGHT ACTIVITY ON & INVOF ARPT.
FOR CD CTC KANSAS CITY ARTCC AT 913-254-8508.

Instrument Procedures

There are no published instrument procedures at H92.

Some nearby airports with instrument procedures:

KOWP - William R Pogue Municipal Airport (20 nm SE)
KBVO - Bartlesville Municipal Airport (26 nm NE)
KTUL - Tulsa International Airport (28 nm SE)
KRVS - Richard Lloyd Jones Jr Airport (31 nm SE)
KCUH - Cushing Municipal Airport (35 nm SW)
 
Loc | Ops | Rwys | IFR | FBO | Links
Com | Nav | Svcs | Stats | Notes
Area around H92 (Hominy Municipal Airport)
 
Road maps at: MapQuest Bing Google
 
Aerial photo
WARNING: Photo may not be current or correct
Aerial photo of H92 (Hominy Municipal Airport)
Photo by David Heon
Taken in September 2016
looking west

Do you have a better or more recent aerial photo of Hominy Municipal Airport that you would like to share? If so, please send us your photo.

 
Sectional chart

 
Airport distance calculator
Flying to Hominy Municipal Airport? Find the distance to fly.

From to H92

Sunrise and sunset
Times for 16-Jan-2021
 Local
(UTC-6)
 Zulu
(UTC)
Morning civil twilight07:0913:09
Sunrise07:3713:37
Sunset17:3423:34
Evening civil twilight18:0200:02

Current date and time
Zulu (UTC)  16-Jan-2021 22:42:44
Local (UTC-6)  16-Jan-2021 16:42:44
 
METAR
KOWP 
20nm SE 
162215Z AUTO 25005KT 10SM CLR 10/M08 A2996 RMK AO2 T00991084 PWINO
KBVO 
26nm NE 
162153Z AUTO 25006KT 10SM CLR 09/M07 A2996 RMK AO2 SLP145 T00941067
KTUL 
28nm SE 
162153Z 25008KT 10SM FEW250 09/M06 A2996 RMK AO2 SLP147 T00941061
KRVS 
31nm SE 
162153Z 26005KT 10SM CLR 10/M07 A2997 RMK AO2 SLP156 T01001072
KCUH 
35nm SW 
162215Z AUTO 28005KT 10SM CLR 09/M09 A2996 RMK AO2 T00931086
KSWO 
38nm SW 
162153Z 25010KT 10SM CLR 11/M08 A2996 RMK AO2 SLP146 T01111083
KPNC 
39nm NW 
162153Z AUTO 23005KT 10SM CLR 08/M07 A2995 RMK AO2 SLP146 T00831072
TAF
KBVO 
26nm NE 
161720Z 1618/1718 29006KT P6SM SCT250 FM170000 VRB03KT P6SM SCT250 FM171300 30008KT P6SM BKN080
KTUL 
28nm SE 
161120Z 1612/1712 26004KT P6SM SCT250 FM170000 27004KT P6SM FEW250
KRVS 
31nm SE 
161120Z 1612/1712 24003KT P6SM SCT250 FM170000 VRB02KT P6SM FEW250
NOTAMs
Click for the latest NOTAMs
NOTAMs are issued by the DoD/FAA and will open in a separate window not controlled by AirNav.

 

 
 

FBO, Fuel Providers, and Aircraft Ground Support

  
 Business Name 
 
 Contact 
 
 Services / Description 
 
Fuel Prices
 
Comments
  
City of Hominy 918-885-2164
no information available

If you are affiliated with City of Hominy and would like to show here your services, contact info, web link, logo, and more, click here
100LL
SS $3.90 
 Updated 07-Jan-2021
 
   2 read write
SS=Self service
Update Fuel Prices
 

Would you like to see your business listed on this page?

 If your business provides an interesting product or service to pilots, flight crews, aircraft, or users of the Hominy Municipal Airport, you should consider listing it here.  To start the listing process, click on the button below
 
Add a business
 

Other Pages about Hominy Municipal Airport

Update a link
 
Copyright © AirNav, LLC. All rights reserved. Privacy Policy  Contact